Find Starlink 5757

NORAD ID: 55580 Int'l Des: 2023-020 Owner: SPXS Country: US Constellation: starlink operational
LEOCIRCULAR

現在のビュー

3D地球を読み込み中...

About Starlink 5757

Starlink 5757 (NORAD 55580) is a starlink constellation satellite (v1.5) launched Feb 12, 2023 by SPXS of US. It operates in LEO, CIRCULAR orbit with a mass of 305.00 kg.

Starlink 5757について

説明を読み込み中...

次回通過

Passes for default location (London). Set your location on the main map for personalized predictions.

高度履歴

Loading altitude history...

軌道要素

1 55580U 23020M 26171.18159526 -.00000057 00000-0 74727-5 0 9999
2 55580 43.0051 120.7288 0001640 270.7094 89.3570 15.27575903184881
Epoch: Jun 20, 2026 • Age: 12 hours

現在のステータス

高度 494.7 km
速度 7.62 km/s
衛星直下点 -41.74°S, 111.78°W
打ち上げ日 Feb 12, 2023
運用期間 3.3 years
タイプ internet

技術仕様

分類 Payload
質量 305.00 kg
乾燥質量 290.00 kg
総質量 305.00 kg
長さ 0.20 m
直径 2.80 m
スパン 9.00 m
形状 Box + pan
製造者 SPXS
バスタイプ Starlink
フェーズステータス In Orbit
所有者/国 SPXS/US

Most Searched